Location: Jetmore
(38.0845°N, 99.8935°W)
Time: 20:11:45
(UTC+00:00)

N. Korean satellite - Pass Details

Date: 21 September 2021
Orbit: 450 x 494 km, 97.3° (Epoch: 28 October)

Event Time Altitude Azimuth Distance (km) Brightness Sun altitude
Rises 11:39:26 0° 16° (NNE) 2,516 10.6 -10.1°
Reaches altitude 10° 11:41:31 10° 22° (NNE) 1,643 9.7 -9.7°
Maximum altitude 11:44:58 53° 100° (E) 595 7.4 -9.0°
Drops below altitude 10° 11:48:27 10° 178° (S) 1,656 9.2 -8.3°
Sets 11:50:33 0° 183° (S) 2,539 10.1 -7.9°
